Wind_Speed
2 1 4 4 3 2 1 1 3 4 3 3 5 3 1 1 3 3 6 6 5 4 6 7 6 5 4 5 4 3 4 5 5 5 5 5 5 5 5 4 4 5 5 6 8 9 10 11 12 13 14 15 18 22 24 26 29 31 30 30 29 28 27 27 27 27 25 23 23 24 23 21 20 19 18 16 14 13 13 12 11 11 11 10 10 10 10
2 2 3 2 1 2 1 1 2 2 4 5 4 3 2 1 2 3 4 5 3 4 5 6 6 4 3 3 3 3 4 5 4 4 4 4 4 3 4 4 4 4 4 5 7 8 9 10 10 11 11 12 14 17 18 22 25 27 28 28 26 24 24 27 28 26 26 26 25 24 23 21 20 19 18 17 15 14 14 13 12 11 11 10 9 9 10
2 1 1 1 0 2 3 2 1 1 3 5 4 2 1 1 2 2 3 4 2 3 4 6 6 5 5 5 5 5 5 4 3 2 3 4 4 3 2 2 3 3 3 3 5 6 8 9 9 10 11 13 15 15 16 19 22 24 25 26 25 22 20 19 18 18 19 21 22 23 23 21 20 18 18 17 16 14 13 12 12 12 11 11 10 9 8
2 0 2 3 2 2 5 5 3 2 2 2 3 3 2 2 1 1 3 3 1 2 3 5 6 6 7 8 7 6 5 4 3 1 3 4 5 5 4 3 3 3 3 3 3 5 6 8 9 10 12 14 16 17 17 19 21 22 23 24 22 19 15 13 12 10 11 13 14 17 19 20 19 18 16 14 13 11 9 8 9 9 8 8 8 7 6
2 1 3 3 2 3 5 4 1 1 3 2 3 4 3 4 3 2 3 1 2 3 1 4 5 5 5 5 5 4 4 3 2 1 1 2 3 4 4 4 3 3 2 2 2 3 4 6 8 10 13 15 17 18 18 18 19 19 20 20 18 15 14 15 16 15 13 11 11 12 13 14 14 14 13 12 9 8 9 9 8 7 6 7 7 7 7
1 2 2 1 3 4 1 1 1 2 3 4 4 3 5 6 5 3 2 1 2 4 2 3 4 4 4 4 5 7 7 5 3 4 5 5 6 6 6 6 5 4 4 3 1 0 2 4 5 7 10 11 12 14 16 18 19 19 21 21 20 18 18 17 17 17 14 12 12 10 8 6 7 9 11 10 8 6 7 9 9 10 11 12 12 11 9
1 1 0 4 4 2 1 1 1 2 2 3 5 6 6 7 7 6 5 3 2 2 2 3 4 5 6 6 9 11 11 9 7 6 6 7 8 8 7 7 8 7 7 6 5 4 2 1 3 4 6 6 7 9 12 16 19 20 22 23 22 23 23 19 16 15 13 12 12 9 7 7 5 5 6 5 5 4 4 6 8 10 12 13 12 10 9
1 1 2 3 2 1 2 4 3 2 2 3 4 6 8 9 9 8 6 4 4 3 1 3 4 4 5 7 9 11 12 12 9 8 7 7 7 8 8 8 8 7 6 6 5 5 4 4 4 5 5 6 7 8 10 14 17 19 20 20 20 21 21 19 17 15 13 14 14 10 8 11 9 7 7 7 7 7 8 8 9 9 8 8 8 8 7
1 1 2 2 3 1 3 4 3 4 5 3 2 4 4 8 9 7 5 5 5 4 3 4 4 1 2 5 8 9 12 14 11 8 8 7 8 10 10 9 8 6 6 7 7 8 9 8 7 7 6 6 6 6 7 9 13 16 16 16 17 18 18 17 16 15 13 13 14 11 11 12 10 9 9 8 7 8 9 8 8 7 5 4 4 6 7
0 1 2 3 4 2 1 3 3 4 3 3 2 3 3 5 9 8 6 6 6 6 5 4 2 0 1 3 4 4 8 14 12 7 6 7 10 12 11 10 9 9 10 10 10 13 14 12 10 8 8 8 9 8 7 5 7 9 10 12 15 18 18 17 16 15 13 13 13 13 12 11 11 8 7 6 6 7 6 4 4 5 5 4 3 4 6
2 3 3 2 3 2 1 3 4 3 2 2 3 4 4 3 8 8 8 8 8 7 6 4 2 1 2 1 2 2 5 13 11 5 5 8 11 14 13 12 13 14 14 14 14 16 17 15 13 12 12 13 14 14 14 14 15 16 15 13 14 18 19 18 16 15 15 15 14 13 11 11 10 8 6 6 5 5 4 3 3 4 4 4 4 3 2
3 4 3 2 3 2 0 2 3 4 3 2 3 4 2 2 6 8 8 9 8 7 5 2 1 1 2 2 2 3 4 12 13 9 8 9 11 14 14 14 18 21 21 18 16 17 16 15 15 16 19 21 20 19 21 22 20 19 17 16 17 19 20 20 18 17 17 17 16 15 15 14 11 9 9 8 6 4 3 3 3 4 5 4 3 2 1
2 4 4 3 3 1 1 2 2 4 3 2 3 3 2 2 6 7 7 8 8 6 4 1 1 3 5 6 6 4 5 9 11 12 12 11 11 14 14 14 19 25 26 23 20 18 17 18 20 25 29 29 26 25 26 24 21 19 19 20 21 22 22 22 22 22 22 21 20 17 16 15 14 13 11 9 7 5 3 3 5 6 6 5 4 4 3
1 2 3 2 2 0 1 2 4 3 3 3 2 1 2 2 7 8 7 8 8 6 3 2 3 7 10 10 8 6 6 7 9 11 13 13 12 13 14 15 19 24 25 25 24 22 20 21 23 28 33 31 27 27 27 22 20 21 22 23 25 26 27 26 25 24 24 23 21 19 17 16 14 13 13 13 11 8 6 7 8 8 8 7 6 5 6
1 2 2 2 2 0 2 4 5 3 3 1 2 2 1 2 6 8 8 8 7 6 5 6 8 11 12 10 9 8 8 7 8 10 12 13 12 13 15 15 18 21 22 23 25 24 22 22 22 26 31 29 25 26 25 21 20 22 22 23 26 28 28 28 26 25 24 23 22 20 18 16 14 12 13 13 12 9 9 9 9 8 7 7 6 6 7
2 3 3 1 1 1 0 2 2 1 1 2 3 2 0 2 5 7 7 7 7 7 8 9 10 12 12 10 10 10 9 8 8 9 10 12 13 15 16 15 17 20 20 21 24 25 25 24 22 23 26 25 23 23 21 20 21 22 22 25 27 27 27 25 24 22 21 21 21 19 18 17 15 13 12 12 12 11 10 9 8 7 6 6 5 5 6
2 2 1 1 1 0 2 3 2 2 2 2 2 1 1 3 4 4 5 6 7 8 11 12 11 11 11 11 11 11 10 9 9 9 10 12 13 15 16 16 16 18 19 20 23 24 25 26 25 23 24 24 23 21 19 20 22 23 23 25 26 26 25 23 21 20 20 19 19 18 17 16 16 15 13 12 12 12 10 9 8 6 5 5 4 4 4
1 2 1 1 1 1 1 2 1 1 1 1 2 2 2 1 1 1 1 3 8 11 13 13 12 11 12 12 11 10 10 10 10 10 11 12 13 14 14 14 15 17 19 20 21 21 22 24 25 25 25 25 23 21 20 20 20 20 21 22 23 23 22 21 20 20 19 19 18 17 17 17 17 16 14 11 10 9 8 8 7 6 5 4 4 3 3
2 2 1 1 1 2 1 1 1 1 2 3 4 5 6 6 5 6 7 3 6 12 13 13 13 13 12 12 10 10 9 9 9 11 11 11 12 12 13 13 14 16 18 19 19 20 20 21 22 24 25 24 22 21 20 20 19 20 21 22 22 21 21 20 20 20 19 18 17 16 16 16 15 15 14 12 11 10 8 7 5 5 5 4 3 2 2
2 0 1 0 1 2 2 2 2 3 3 4 5 7 10 10 9 9 10 6 1 6 9 13 14 13 11 11 11 9 8 8 9 10 11 12 12 12 14 16 15 14 16 18 18 19 20 21 23 24 24 23 22 21 20 19 19 20 22 22 22 21 20 20 19 19 17 16 16 15 15 14 14 14 14 13 12 11 9 8 6 5 4 4 3 2 3
1 0 2 3 2 1 1 1 1 3 3 5 6 7 9 11 10 8 9 9 7 6 5 7 11 12 10 10 11 11 8 8 9 9 10 12 12 13 15 17 17 16 16 17 18 18 19 22 24 24 23 23 22 21 20 19 19 20 21 22 21 20 19 18 17 17 16 16 15 15 15 15 15 15 14 13 12 11 10 8 7 5 4 3 3 3 3
2 2 6 6 3 3 3 2 2 3 3 5 7 7 6 8 10 9 8 7 8 10 11 7 5 9 10 9 10 10 9 9 11 11 12 12 13 14 16 17 18 19 18 17 18 18 19 21 23 24 23 22 21 20 20 19 19 20 20 19 18 17 17 16 15 16 16 16 15 15 14 14 13 13 13 13 12 11 10 9 8 6 5 4 4 4 4
1 4 9 8 2 4 4 2 2 3 3 5 8 6 5 6 9 10 8 5 4 7 12 13 7 4 8 12 12 10 9 11 13 13 14 14 14 15 16 17 17 18 19 19 19 19 18 18 19 21 22 23 22 21 20 19 18 18 18 17 15 13 13 14 15 15 15 15 15 14 13 13 12 11 10 10 10 10 10 10 9 8 7 6 6 6 5
1 4 9 7 3 6 7 4 2 2 2 5 8 6 4 6 9 9 8 6 5 4 7 12 12 7 5 9 12 11 10 11 13 14 14 15 15 15 16 16 16 15 17 18 19 19 18 18 17 17 18 19 20 20 20 20 20 19 19 18 15 12 12 12 12 13 12 12 12 12 11 11 11 10 7 6 7 8 8 8 8 8 7 7 7 7 7
2 5 7 5 4 8 8 4 1 1 2 3 6 5 5 8 10 10 8 6 6 8 8 9 11 11 9 8 9 12 12 11 12 14 14 14 15 15 15 16 17 16 17 17 18 18 18 18 17 16 16 16 16 16 17 18 19 19 19 18 15 12 11 11 10 10 9 9 9 9 9 9 9 9 7 6 6 5 5 5 5 5 5 6 6 6 6
5 8 8 7 7 9 7 3 2 2 1 3 6 6 8 10 10 9 8 7 8 11 12 12 13 14 11 8 9 12 13 12 13 15 14 13 13 14 14 15 17 18 18 17 18 18 19 20 19 19 18 15 14 14 14 14 15 16 16 15 13 12 12 11 10 9 9 8 7 7 7 7 7 6 7 6 6 5 4 4 4 4 4 4 3 4 4
8 10 11 10 8 7 5 3 2 2 2 5 7 8 11 13 11 8 9 11 12 14 14 15 18 17 12 10 12 14 15 14 14 14 14 14 13 14 14 16 18 20 20 20 20 20 20 20 21 21 20 17 15 14 14 14 14 15 14 13 12 11 12 13 12 11 11 10 9 7 6 6 6 6 6 5 5 5 5 5 5 4 2 2 2 2 2
9 7 6 7 9 9 6 4 5 5 4 5 8 11 12 13 11 9 9 11 15 17 15 15 19 20 16 17 19 17 14 15 16 15 14 14 15 16 19 20 20 22 23 23 22 21 20 20 20 20 19 17 16 15 14 14 14 14 14 13 11 10 11 12 12 11 12 12 11 10 8 7 7 6 6 7 7 6 5 6 6 5 4 3 4 4 4
7 3 2 5 9 11 10 8 8 8 6 6 9 12 13 11 9 8 9 10 13 15 14 15 18 20 20 22 22 17 13 14 16 16 16 16 17 19 22 23 24 25 25 24 22 21 21 20 20 19 18 16 15 15 14 13 13 13 13 12 11 10 9 10 10 10 10 10 11 10 10 8 7 7 7 7 7 7 7 6 6 6 5 5 5 6 6
5 4 5 8 11 13 14 11 9 9 8 8 8 9 11 11 9 7 8 10 11 12 13 15 16 18 19 20 20 19 18 18 18 18 19 19 19 20 22 24 23 22 21 21 21 21 20 19 19 17 16 14 13 13 12 12 12 12 12 12 11 10 10 10 9 9 9 9 9 9 8 8 7 7 7 7 7 7 7 6 6 7 6 5 5 6 7
7 7 9 11 12 13 13 11 10 9 9 9 9 8 9 10 10 8 7 8 10 11 14 15 15 16 18 21 24 26 26 25 25 24 23 22 22 22 22 22 21 18 17 18 18 18 17 17 17 16 14 12 11 11 10 10 9 9 8 8 9 9 10 10 9 9 8 7 7 7 7 6 7 7 7 8 8 7 7 7 7 7 7 7 7 7 7
11 10 10 10 10 11 11 10 10 11 10 9 11 10 8 9 11 9 7 8 10 12 14 15 14 16 20 25 28 29 28 27 27 26 25 24 23 22 21 21 21 19 18 18 17 15 15 16 15 14 12 11 11 11 11 10 10 9 8 7 7 7 8 9 8 7 7 6 6 6 7 7 7 7 7 8 9 9 9 9 8 8 8 8 8 8 8
13 10 9 9 10 10 10 9 10 11 10 9 9 9 9 10 11 10 9 11 13 13 13 13 15 19 24 28 28 28 27 26 23 22 22 22 22 21 19 19 18 18 17 16 14 13 13 14 13 12 11 10 10 10 10 10 10 9 9 8 7 7 7 8 8 7 6 6 6 7 7 7 8 8 8 9 9 10 11 11 11 11 11 11 10 10 11
13 12 13 14 13 12 12 11 9 8 8 7 8 9 11 12 12 12 13 13 13 13 14 15 17 21 25 26 25 23 21 18 15 14 16 19 20 19 18 17 16 16 15 14 13 12 11 10 10 9 8 8 9 9 9 9 9 9 9 9 8 7 7 7 8 8 7 7 8 8 8 8 8 8 9 9 9 9 10 11 12 13 14 15 13 13 14
7 9 13 15 14 14 15 13 11 10 9 8 8 9 11 12 13 13 13 13 14 15 17 18 19 20 22 21 18 16 15 14 13 14 16 18 18 16 15 14 14 14 13 13 12 10 8 8 8 7 7 8 8 9 9 9 9 9 9 9 8 8 7 7 7 7 8 8 9 9 9 9 9 9 9 9 10 10 10 10 11 12 14 16 16 15 15
6 8 10 9 11 15 16 14 13 13 12 10 10 11 12 13 15 14 14 15 18 20 21 20 19 18 17 16 15 15 15 15 15 16 17 16 15 14 13 12 12 11 11 11 10 8 7 7 7 7 7 7 8 8 8 9 8 9 9 9 9 8 8 7 7 8 8 8 8 9 9 10 10 10 10 10 10 10 10 10 11 11 12 15 15 14 13
9 12 11 10 12 15 16 15 16 15 13 12 14 15 14 14 15 17 18 20 21 22 22 21 20 18 17 18 18 18 17 16 16 16 16 16 15 14 12 11 10 8 8 7 7 6 6 6 6 6 6 6 7 7 7 7 7 8 8 8 7 7 7 6 7 7 8 8 9 9 9 10 11 11 11 11 11 11 11 11 12 12 13 14 15 14 12
10 12 12 13 14 15 14 14 16 17 16 14 14 15 17 19 19 20 20 20 21 24 24 23 23 22 21 20 19 17 16 16 16 16 15 14 12 12 11 9 8 7 7 6 4 4 6 6 7 7 8 7 6 7 8 8 8 7 6 6 5 5 6 6 6 7 7 8 9 9 10 11 11 12 12 12 11 12 12 12 13 14 14 14 15 15 13
9 10 11 13 14 15 14 14 15 16 19 19 15 14 17 22 24 23 21 20 22 25 27 26 25 22 19 17 15 14 14 14 14 14 13 12 11 12 11 10 8 8 7 6 5 6 7 8 9 11 10 8 7 8 10 11 10 8 6 5 5 6 6 6 6 7 7 8 9 9 10 10 11 11 12 12 12 12 12 12 12 13 14 14 14 15 14
9 10 12 13 14 14 15 15 13 14 18 23 23 21 21 24 24 22 20 20 23 26 28 28 24 18 14 14 14 13 13 13 13 13 12 11 11 12 11 10 8 8 8 8 8 8 8 9 10 11 12 11 11 12 12 12 12 11 8 6 6 7 6 6 6 7 7 7 8 8 8 9 9 10 11 11 11 11 11 12 12 12 13 14 14 13 12
10 12 14 14 13 14 15 15 14 13 15 21 27 28 29 30 28 24 21 22 26 27 28 27 23 17 15 16 15 14 14 14 12 11 10 10 10 10 10 9 7 7 8 9 9 9 10 10 11 11 11 12 13 13 12 13 14 13 11 8 8 8 7 7 8 8 8 8 8 8 8 9 9 9 10 10 10 10 10 10 10 10 11 11 11 11 10
12 14 15 13 13 14 15 16 16 15 14 17 24 29 30 32 31 29 27 27 28 26 25 24 23 21 19 18 17 15 13 11 10 9 9 8 8 9 10 9 8 7 8 8 9 9 9 10 11 10 10 11 12 12 12 13 14 14 13 12 11 10 9 9 9 9 8 8 8 9 10 10 9 10 10 10 10 10 10 10 10 10 9 9 8 8 7
14 15 15 13 13 14 15 16 17 16 15 15 20 25 28 29 31 31 30 29 27 25 23 22 21 20 19 18 16 13 11 10 10 10 10 9 8 9 10 10 8 7 7 8 8 9 9 10 10 10 10 10 10 11 12 13 13 13 13 13 12 11 10 9 9 9 9 9 9 9 10 10 10 10 10 10 10 10 10 9 9 9 9 9 7 6 4
15 15 14 13 14 15 15 15 16 17 16 15 18 23 27 29 30 31 30 28 25 24 23 22 20 18 17 15 13 12 11 11 11 11 11 10 9 8 8 9 8 7 6 7 8 9 9 9 9 9 9 9 10 10 12 13 13 12 12 11 11 10 9 9 8 8 8 9 9 9 9 9 9 9 9 10 10 10 9 9 9 8 8 8 6 4 3
16 19 19 18 16 16 16 16 17 19 20 20 20 23 26 28 29 29 28 26 24 23 22 20 19 18 16 13 11 11 11 10 9 8 8 8 8 7 7 7 7 6 6 7 8 8 8 8 8 8 9 9 10 10 11 12 12 11 11 10 9 8 8 8 8 8 8 9 9 9 9 9 8 8 8 9 9 8 8 9 8 7 7 6 5 3 4
15 19 21 18 14 14 17 20 24 26 26 22 18 18 22 26 26 25 24 23 22 21 19 19 18 18 17 14 12 11 10 8 7 7 7 8 9 9 8 7 7 6 6 6 7 7 7 7 7 7 8 8 9 10 10 10 10 10 9 9 9 8 8 8 8 8 8 9 9 9 9 8 8 7 8 8 8 8 9 9 8 6 5 4 3 2 3
15 16 18 17 15 16 20 24 27 26 23 18 14 14 18 23 24 22 21 20 19 18 18 17 17 17 17 16 14 13 12 10 8 7 8 10 11 10 9 8 7 6 6 6 6 6 6 6 7 7 7 8 8 9 9 8 8 9 8 8 8 8 7 8 8 8 8 8 9 9 9 9 8 7 8 8 8 8 9 9 8 7 5 4 3 2 1
16 15 17 20 21 20 22 23 21 18 16 15 15 16 19 22 22 20 19 19 19 18 18 17 16 15 16 16 14 14 15 13 10 8 8 10 10 10 9 9 8 7 7 7 7 7 7 7 6 6 7 7 7 7 7 7 7 7 7 6 7 7 7 7 7 7 7 7 7 8 7 8 8 8 8 8 8 8 8 8 8 7 6 5 4 3 2
18 17 18 20 21 20 20 18 14 12 14 17 19 20 21 22 20 18 18 19 18 17 16 15 15 15 15 13 12 12 12 11 10 10 12 12 11 10 10 10 9 9 9 9 8 7 7 6 6 6 6 6 5 5 6 6 6 6 6 6 6 6 6 6 6 6 6 6 7 6 6 6 7 7 7 8 8 8 8 7 7 7 7 6 5 4 3
19 18 17 17 18 19 19 17 15 15 17 20 22 24 24 21 16 15 16 16 15 14 13 13 13 14 14 13 12 12 10 9 10 13 15 14 12 12 12 12 11 10 10 10 9 8 7 6 6 5 5 4 4 4 4 4 4 5 5 5 5 5 5 5 5 6 6 6 6 6 6 6 6 7 7 7 7 8 8 7 7 7 7 6 5 4 4
19 16 15 16 19 21 22 22 23 25 25 25 26 26 22 17 14 15 16 15 15 14 13 12 12 13 13 13 12 11 10 10 12 14 15 14 14 14 13 13 12 11 10 9 9 8 8 6 6 5 4 3 2 2 2 2 2 3 3 4 4 4 4 4 4 4 5 5 5 5 5 5 5 6 6 7 7 7 7 7 7 7 7 7 6 6 5
19 18 17 17 17 17 18 21 26 29 30 29 27 23 18 14 14 15 15 15 15 15 14 13 12 13 14 13 12 12 12 13 14 15 15 15 15 14 13 12 11 10 9 9 8 8 7 7 6 4 3 3 2 2 1 1 0 1 2 2 3 3 3 3 3 3 3 3 3 3 4 4 4 5 5 6 6 6 7 7 7 7 7 7 7 6 4
Wind_Direction
304 13 26 10 350 1 92 104 90 98 94 72 75 85 154 200 246 296 341 325 300 349 26 33 30 14 3 10 29 87 131 141 135 125 115 113 119 125 134 144 161 180 187 190 194 199 203 205 206 208 209 208 207 208 208 208 209 210 212 213 213 214 215 217 221 224 225 225 229 232 233 234 235 235 234 233 234 236 237 236 237 240 242 250 260 265 269
298 5 20 24 358 292 300 29 60 112 111 94 90 115 154 217 261 291 311 303 309 356 19 38 47 33 15 13 23 57 98 134 146 136 126 126 127 122 135 145 147 165 185 192 191 191 194 199 203 203 203 205 206 207 209 209 208 209 211 213 213 212 215 219 223 224 225 227 230 232 232 233 235 236 236 236 238 239 240 240 242 244 248 255 262 264 265
254 336 8 38 102 261 274 317 356 173 140 123 122 135 158 255 265 300 301 284 317 23 39 50 58 57 46 41 34 34 58 91 107 123 130 136 135 126 141 157 142 148 170 181 184 191 193 195 197 197 198 203 204 206 208 207 208 210 211 212 214 214 217 222 225 226 225 225 227 229 230 233 236 237 237 238 243 245 244 247 249 249 251 256 260 264 265
222 20 343 316 329 290 272 274 277 255 224 180 147 143 182 222 203 280 283 267 329 18 74 79 72 73 64 51 35 17 25 48 54 98 159 164 156 152 165 177 162 154 158 163 176 191 194 191 191 194 198 202 203 205 206 205 208 211 210 211 214 211 209 213 219 230 235 229 225 226 231 235 236 238 240 240 245 246 239 241 247 248 255 259 255 256 259
195 97 4 342 331 278 267 269 276 291 283 253 176 159 188 206 193 234 257 241 344 327 148 110 81 74 68 55 46 25 3 357 13 68 119 143 133 131 142 145 135 128 116 128 176 193 195 193 193 197 199 200 202 205 204 202 205 205 202 205 206 201 200 205 212 223 234 238 234 227 229 240 246 240 233 229 233 237 236 240 246 252 263 263 249 245 253
192 96 25 311 249 261 271 64 14 282 263 246 235 214 199 200 203 223 230 108 6 328 354 94 85 78 69 46 50 48 21 351 8 44 40 52 70 73 78 86 82 69 58 53 45 225 203 193 190 196 200 202 204 204 203 203 202 198 194 194 196 200 203 204 207 213 219 230 240 231 212 229 252 237 220 213 211 218 240 251 252 248 245 244 244 246 251
222 98 333 239 246 283 58 108 278 274 250 247 271 271 234 212 209 199 176 141 134 305 349 61 86 84 75 56 50 54 45 28 22 30 35 47 61 62 60 60 56 51 50 47 43 41 51 141 164 178 187 191 197 200 202 202 199 195 194 193 195 201 203 200 201 204 200 207 222 219 174 158 183 223 221 203 185 192 237 250 241 238 237 240 245 248 249
262 199 216 242 278 354 242 252 254 233 244 246 267 267 237 216 211 196 175 155 157 178 120 93 104 90 71 57 49 57 66 57 33 16 22 35 50 59 61 61 60 62 68 74 74 72 78 102 124 142 164 180 190 195 200 201 197 193 192 192 194 196 194 194 199 198 193 198 207 205 173 159 170 202 207 191 193 214 223 219 219 226 232 238 245 250 254
260 233 229 270 300 276 221 238 221 205 229 246 263 279 244 210 210 205 176 159 164 166 139 118 119 92 17 49 48 55 75 75 55 25 17 28 49 60 61 65 69 71 77 84 90 94 93 93 100 112 132 158 170 170 183 196 196 191 186 181 182 184 179 176 179 182 187 198 197 179 158 160 174 189 185 174 187 212 213 206 212 223 225 233 250 260 263
132 244 262 273 284 290 182 182 181 188 227 250 237 267 264 201 197 197 175 162 169 169 153 138 132 280 324 54 49 55 85 83 70 41 23 36 56 62 59 59 60 56 59 67 75 83 83 78 84 104 119 130 127 115 108 119 138 145 147 153 163 168 166 160 159 162 170 176 172 158 152 165 181 187 180 175 195 222 224 214 218 224 224 229 236 244 253
169 212 246 244 256 296 81 161 160 157 189 212 218 253 271 186 179 184 172 166 174 170 155 147 159 199 197 96 7 314 95 93 89 76 50 49 58 62 59 57 56 54 58 64 71 77 78 78 89 105 112 111 101 88 87 91 89 87 92 106 125 136 140 142 145 150 156 158 156 150 144 152 165 168 154 146 167 206 212 182 171 178 183 190 186 180 208
178 208 233 244 244 279 17 186 164 141 151 173 221 244 286 113 172 181 168 167 176 168 150 154 173 166 171 136 77 3 64 97 106 104 81 63 62 65 63 60 61 61 57 54 58 67 74 79 88 95 98 96 88 81 84 87 82 78 85 93 100 106 110 114 119 123 126 130 134 135 132 132 134 133 127 125 140 171 176 147 131 127 133 149 153 142 145
189 214 234 260 254 248 246 215 147 124 146 194 229 249 17 106 182 180 164 168 174 164 148 178 178 117 112 116 107 67 58 88 101 101 91 78 72 74 74 69 70 70 64 57 54 58 69 78 85 91 93 89 83 81 81 79 76 78 85 91 95 98 98 96 97 100 101 103 108 111 114 116 114 111 111 116 130 144 133 110 105 103 106 113 120 117 111
179 215 238 274 273 280 84 110 112 137 196 214 247 316 356 187 183 175 170 169 163 156 142 113 133 128 118 114 110 93 80 84 89 93 94 88 81 80 79 75 74 74 72 69 65 62 65 72 78 86 89 84 80 81 79 74 78 85 87 88 89 91 92 90 89 90 91 92 93 92 94 98 99 97 98 104 112 118 114 112 114 108 102 102 103 103 102
136 177 207 251 262 112 114 133 141 184 230 292 351 342 335 192 179 174 175 167 151 146 140 128 133 130 121 118 117 105 95 92 87 86 88 88 86 84 81 78 78 78 75 75 76 75 75 74 74 80 85 84 82 83 82 79 83 86 86 86 85 85 86 85 84 83 84 86 88 88 88 89 91 92 96 99 103 105 105 107 110 108 103 102 103 105 106
195 194 193 232 333 43 256 190 172 209 304 344 325 299 68 171 187 185 178 162 146 147 149 142 138 132 124 124 124 116 110 105 94 87 87 88 88 86 83 80 81 82 81 80 81 81 81 80 78 79 84 86 86 87 87 86 87 86 84 84 83 82 82 81 80 80 81 82 84 85 84 83 83 85 89 92 94 96 99 103 104 101 100 104 109 109 104
216 238 251 333 348 352 271 267 285 326 348 6 333 303 113 158 188 199 188 163 150 153 156 149 142 139 135 131 128 123 118 112 101 91 87 86 86 87 88 86 85 87 88 86 83 81 81 82 82 80 81 84 86 90 93 91 89 88 86 83 82 82 82 82 81 81 80 79 79 80 80 79 79 79 80 84 89 91 92 95 95 93 94 96 97 97 97
210 269 291 314 288 277 276 266 276 303 333 56 55 53 60 89 159 206 248 180 159 158 158 152 146 144 140 133 128 123 115 110 106 101 95 90 90 91 91 91 92 93 92 88 85 83 81 81 81 80 79 81 84 91 96 95 92 90 87 83 82 82 83 83 82 80 80 79 77 76 76 76 76 75 76 77 80 82 83 87 91 95 98 98 93 89 82
183 210 174 186 258 285 296 222 166 114 68 64 71 77 65 49 50 42 16 343 180 164 155 149 147 146 142 134 129 124 118 112 110 108 104 97 92 92 94 95 95 95 94 91 89 86 83 81 81 80 79 82 87 93 96 95 91 86 83 81 80 80 80 80 79 78 77 77 76 74 72 71 70 70 70 70 72 73 72 74 77 78 82 86 86 75 41
178 3 63 82 288 290 279 236 173 141 117 97 93 97 88 74 65 55 40 27 185 172 154 147 143 142 143 138 130 125 122 117 114 112 108 104 99 97 100 100 95 91 92 92 90 87 84 81 79 77 76 77 81 87 91 91 89 85 83 82 83 82 81 79 78 78 77 76 74 72 69 68 68 67 65 64 65 65 64 62 58 53 53 51 41 21 0
163 3 157 178 189 158 187 236 177 154 144 120 105 102 100 92 83 69 55 49 52 60 88 133 140 138 138 139 133 129 124 118 116 111 107 106 104 102 104 104 99 93 92 93 92 89 86 83 78 74 73 73 73 76 79 81 82 83 84 83 81 79 78 76 73 71 70 67 65 64 65 64 63 62 59 58 59 58 55 54 53 55 59 55 33 11 356
217 187 172 182 180 127 147 206 183 158 152 127 110 102 103 101 95 88 70 50 55 63 54 53 122 143 136 131 129 125 121 121 120 116 112 109 106 107 110 109 103 97 95 94 94 92 88 85 81 77 74 73 71 71 71 72 74 77 79 80 78 75 73 69 65 62 60 57 55 56 58 58 54 51 50 50 50 49 47 44 44 47 52 49 37 24 5
251 163 166 176 154 105 134 177 160 144 147 122 109 103 104 97 91 96 98 78 64 74 63 54 57 116 136 133 129 119 116 121 122 121 120 118 115 115 117 114 107 101 97 95 92 90 86 84 82 78 75 73 72 71 70 70 71 73 74 76 73 70 68 65 61 59 58 55 53 52 52 51 48 45 43 41 40 43 44 44 43 44 44 41 35 33 31
94 157 163 169 125 110 135 157 154 166 169 124 113 113 112 95 82 86 99 102 101 104 81 71 68 61 80 113 120 117 117 122 123 121 121 121 121 120 118 115 111 105 101 97 93 89 86 84 82 79 75 72 70 69 67 68 70 72 74 74 71 67 64 61 56 54 54 52 51 49 47 45 42 38 36 36 37 38 37 35 37 39 39 36 32 32 37
126 139 143 148 107 105 121 135 130 262 262 120 116 113 102 97 90 86 94 105 113 116 105 91 89 86 75 79 101 112 114 116 118 118 116 115 115 112 108 107 107 104 101 98 93 88 86 85 82 79 75 71 68 66 64 63 66 68 70 71 72 70 66 62 57 53 50 47 44 42 39 36 33 30 27 26 26 27 23 21 23 23 22 25 28 29 31
118 120 118 110 96 102 119 130 137 227 263 95 103 96 89 93 94 98 115 130 126 120 117 110 103 101 99 98 105 107 106 104 107 107 102 98 97 94 91 95 98 97 94 90 85 84 84 82 77 74 71 67 63 61 59 57 59 62 63 65 67 65 61 59 58 55 51 47 44 40 36 33 29 26 22 15 7 1 355 351 352 350 351 358 9 16 23
131 133 126 117 113 131 160 163 139 171 141 100 103 99 95 97 99 107 122 126 116 111 114 117 115 115 119 120 109 101 100 100 97 92 88 84 82 83 87 92 93 91 89 86 85 84 82 78 73 69 66 64 60 57 54 52 51 52 51 53 56 53 48 46 46 45 41 38 36 33 30 27 23 17 11 2 351 342 335 330 327 322 309 301 304 316 337
148 150 140 139 149 161 165 134 116 120 103 96 109 110 107 111 117 117 113 110 107 104 104 115 124 127 129 122 109 99 95 95 91 86 84 86 90 95 98 98 96 94 91 88 86 84 80 76 73 69 64 61 58 54 50 47 45 43 42 41 42 39 35 34 34 32 30 28 28 25 20 15 8 1 356 350 342 334 320 310 308 306 290 267 261 260 258
153 144 82 100 122 130 127 119 120 121 109 105 117 121 122 125 125 115 108 107 109 109 107 110 115 115 114 112 107 100 94 92 91 91 92 94 98 100 100 99 98 95 92 90 88 86 84 80 77 73 68 63 59 54 51 48 46 43 41 39 37 34 29 24 22 19 16 15 14 12 8 4 356 346 343 342 340 335 325 312 303 299 293 278 260 246 240
141 119 107 109 118 128 131 131 133 134 134 135 133 132 132 126 113 103 108 107 103 102 103 103 103 102 102 102 101 100 100 98 97 100 102 102 103 103 103 101 96 89 86 86 84 83 82 79 75 72 69 64 60 55 52 50 48 46 44 42 41 37 30 24 20 15 10 6 3 360 357 352 345 339 335 334 334 334 330 321 307 298 293 284 267 249 239
123 118 123 126 132 136 135 134 137 140 145 147 141 133 128 119 111 111 112 104 99 102 106 104 100 99 101 103 103 104 105 104 103 104 104 104 104 103 101 98 93 86 83 82 80 77 75 71 67 64 59 54 51 47 44 43 43 42 39 37 35 29 23 21 20 15 8 3 359 357 353 345 338 333 329 325 324 324 322 319 311 303 297 290 282 271 254
113 114 120 125 132 133 132 137 142 144 149 151 144 137 132 125 123 126 123 112 111 113 111 107 105 107 111 112 110 109 107 106 104 104 102 101 100 98 94 92 90 88 84 80 76 72 70 66 62 58 51 44 40 35 31 30 29 28 24 20 16 14 14 17 18 14 8 3 0 360 357 351 344 338 330 323 318 314 310 306 303 299 294 290 285 280 272
123 129 137 139 139 140 145 153 151 148 151 150 142 137 135 129 125 126 125 122 121 119 115 114 117 121 121 118 114 112 110 106 102 100 100 101 100 98 95 93 90 87 84 81 77 74 70 66 61 54 46 39 33 28 25 24 22 20 17 11 5 2 5 7 8 6 1 359 360 358 354 349 343 338 332 327 321 314 309 304 300 297 292 287 282 279 280
150 160 165 162 158 156 160 162 155 144 142 138 133 134 134 131 129 131 131 128 126 125 124 125 127 127 124 121 118 116 113 108 104 102 104 107 107 104 100 97 94 92 90 89 84 77 69 60 53 47 40 33 28 23 19 18 17 14 9 3 359 356 352 349 351 350 344 342 344 343 340 338 335 331 328 323 317 312 308 303 301 299 295 291 288 285 288
145 150 158 162 161 155 153 155 153 149 146 143 142 141 139 137 136 137 136 135 133 132 132 132 132 131 128 123 120 117 114 113 115 116 114 113 113 111 106 102 99 96 93 88 81 70 57 46 39 32 20 12 8 6 3 0 358 356 353 349 347 346 342 337 336 335 331 331 331 328 326 327 325 321 320 317 310 307 303 300 300 298 294 293 291 288 291
122 131 142 151 152 149 149 150 153 155 153 148 146 145 143 143 143 141 140 140 139 138 138 137 134 131 127 124 121 119 119 120 121 120 118 119 119 118 114 107 100 95 89 80 67 51 40 34 23 8 357 354 354 356 355 352 346 341 340 339 337 335 332 331 330 328 327 328 326 322 321 321 319 316 316 313 309 306 303 301 301 298 293 294 292 285 284
142 144 144 144 149 154 154 151 151 153 149 145 145 147 147 146 146 145 144 144 144 144 143 140 136 130 126 125 125 124 124 126 126 125 125 126 125 120 113 102 93 90 85 72 53 40 40 37 22 12 13 17 15 13 10 3 355 348 345 344 341 336 331 327 325 324 323 322 320 318 316 315 312 312 312 311 309 309 306 304 303 300 297 298 295 285 276
140 144 143 143 146 150 149 148 150 150 144 140 143 148 150 150 149 146 144 145 147 148 145 141 136 132 128 125 125 125 126 129 131 130 131 131 124 113 102 93 90 91 88 82 73 65 63 59 53 51 51 45 38 33 28 21 16 12 8 3 356 349 343 337 332 327 324 324 323 321 318 316 314 313 311 309 308 307 305 305 305 304 301 300 298 291 283
132 134 134 136 137 137 138 142 149 151 147 144 142 142 147 151 151 147 143 144 148 149 146 141 136 133 130 128 127 128 131 134 135 134 132 126 114 105 99 96 98 99 98 99 98 87 77 73 67 61 57 53 46 40 34 28 26 26 27 25 17 8 0 353 345 337 332 331 330 327 324 324 322 318 316 315 313 310 308 307 308 307 305 305 304 299 292
137 137 138 138 137 137 138 141 147 152 152 151 149 149 150 151 148 142 140 145 150 151 149 144 140 137 136 136 134 133 136 140 140 138 131 122 116 113 109 103 101 101 98 100 101 91 80 74 68 61 57 55 50 43 38 33 32 35 38 35 27 21 14 7 1 356 351 348 345 342 339 337 332 328 327 325 322 320 318 317 317 317 316 314 313 309 301
141 142 141 139 139 139 138 136 138 141 147 151 154 156 157 155 151 145 144 148 151 152 152 150 147 143 141 140 136 133 135 139 140 140 138 135 133 129 120 111 108 108 103 100 96 85 73 66 63 59 54 51 47 43 41 40 43 46 48 44 37 32 27 21 20 17 12 8 5 1 357 355 349 344 343 341 336 335 335 333 332 333 332 328 325 321 311
140 141 139 137 138 138 134 132 133 134 138 147 153 155 157 157 154 150 149 151 152 153 154 154 151 147 144 141 136 132 132 133 132 132 134 136 137 132 124 119 118 115 106 96 85 72 64 62 59 54 50 49 45 40 39 43 47 48 48 45 43 40 35 30 28 24 19 16 15 11 8 6 2 358 355 354 351 350 350 348 347 348 346 341 337 331 319
146 143 139 137 138 136 133 132 132 130 130 138 148 153 155 155 153 150 149 149 150 150 149 148 147 146 145 141 135 131 132 136 135 130 125 118 114 116 120 120 119 114 100 84 70 62 60 59 54 48 46 46 41 35 34 38 41 42 43 43 40 37 33 28 26 23 20 16 13 10 8 6 5 2 360 358 357 356 355 355 357 357 357 356 354 352 346
144 140 135 135 139 139 135 133 131 129 130 138 148 153 153 152 151 150 149 148 149 149 149 149 149 148 146 143 139 141 146 150 147 142 133 123 112 106 108 112 112 106 90 72 65 64 62 58 53 48 44 40 34 29 30 33 35 37 40 40 37 35 33 29 24 22 20 16 11 9 7 5 4 2 0 359 357 356 356 358 1 4 7 8 9 19 43
144 145 144 143 143 143 141 140 139 138 137 139 144 149 151 150 150 151 151 150 151 153 155 156 156 155 152 147 144 145 149 151 149 146 139 128 120 115 114 112 111 105 91 77 74 73 68 61 56 53 47 41 37 35 36 39 41 41 41 40 36 35 33 30 26 24 20 16 13 10 8 4 1 0 0 0 359 358 360 2 4 6 10 17 28 56 89
145 146 144 142 141 142 145 146 144 141 136 132 132 140 148 149 149 151 153 153 154 156 159 161 161 159 156 150 143 140 140 138 135 133 128 123 124 127 128 124 120 117 107 93 87 84 80 73 68 62 57 54 53 52 50 50 49 48 46 43 41 38 36 35 34 31 27 24 21 18 15 10 3 0 4 8 10 10 12 15 17 17 22 31 43 60 85
142 141 139 136 134 136 141 142 140 138 136 134 134 140 148 150 150 152 154 154 153 154 157 159 159 159 158 155 150 147 143 133 119 115 119 121 123 129 134 135 135 134 125 114 108 105 100 92 84 76 70 67 65 61 58 55 52 50 49 48 44 41 40 38 36 34 32 30 29 26 24 20 12 6 8 13 14 13 14 16 20 25 30 34 37 41 71
140 140 140 139 138 138 141 142 141 140 141 140 138 141 147 150 149 149 150 151 149 150 153 155 156 157 158 158 157 154 147 136 126 127 136 135 132 136 143 147 146 141 132 123 118 115 109 102 94 87 80 73 67 61 57 52 49 48 45 43 40 38 37 35 32 31 29 27 25 24 20 16 10 7 6 7 7 8 9 8 10 15 20 22 26 37 59
140 137 136 138 140 143 145 145 143 143 143 140 139 142 147 148 145 144 147 148 147 146 150 153 154 155 156 157 157 154 147 138 137 147 152 149 146 147 150 149 146 140 134 129 124 120 116 108 101 97 91 81 69 61 56 53 51 48 44 41 39 39 38 35 32 28 23 19 17 15 11 7 6 4 1 358 357 359 359 357 358 4 9 11 12 15 15
138 137 140 144 149 152 154 153 150 147 146 145 146 149 150 147 143 144 149 149 145 144 145 149 152 155 156 156 155 152 145 138 143 150 152 150 150 152 151 149 145 142 138 134 130 126 122 116 111 111 109 96 79 68 64 60 56 50 44 42 41 42 39 33 28 24 20 14 10 8 5 3 3 1 357 352 349 347 346 344 345 349 353 353 348 344 341
149 150 153 154 155 158 160 160 159 157 155 154 154 155 154 150 146 149 153 152 149 147 147 148 153 160 163 161 159 156 149 144 148 154 154 152 153 154 152 150 148 146 144 141 137 132 129 127 123 121 121 119 113 105 95 77 60 43 36 34 33 31 27 24 21 20 19 16 11 9 7 5 3 1 359 357 353 349 345 341 339 339 341 340 333 327 325
152 151 148 144 145 150 155 158 159 160 159 158 158 157 155 150 147 150 155 158 156 154 153 153 158 166 170 168 165 163 159 156 157 160 159 156 157 159 158 156 157 158 156 155 152 148 144 142 138 131 127 137 158 186 199 199 345 350 355 2 3 359 355 355 355 358 3 4 3 4 4 359 357 358 2 2 1 358 354 349 341 336 337 339 338 331 327
Height
803 803 802 800 801 803 803 803 803 804 803 801 804 811 811 812 813 808 805 807 805 798 794 793 792 789 786 785 784 783 783 783 783 783 784 785 786 785 785 785 785 786 786 787 788 789 790 792 794 795 797 799 800 802 804 805 807 809 811 813 815 817 819 821 823 824 827 829 831 833 835 836 838 840 841 843 844 845 846 846 847 848 849 850 851 852 852
802 802 803 802 804 807 806 806 807 805 802 801 803 805 804 804 805 803 802 804 802 798 794 792 789 787 784 783 782 782 783 784 783 783 784 785 785 784 784 785 785 785 785 786 787 789 790 791 793 795 797 798 800 802 803 805 807 809 811 813 815 817 818 819 821 823 825 827 829 831 833 834 836 838 840 841 842 843 844 845 846 847 848 849 850 850 851
805 802 803 803 804 807 807 807 808 807 803 803 804 804 803 802 802 800 798 801 800 795 791 790 789 787 785 784 784 784 784 786 785 785 785 785 785 785 785 785 785 785 786 786 787 789 790 791 792 794 796 797 799 801 803 805 807 809 810 812 814 816 818 820 822 824 825 826 828 829 831 833 835 836 838 839 841 842 843 844 845 846 847 847 848 849 849
810 805 807 807 804 806 808 804 805 808 806 803 802 802 801 801 804 804 801 801 801 795 791 791 790 788 788 788 787 786 786 787 787 787 786 786 785 786 786 786 787 787 787 788 788 789 791 791 792 794 795 797 799 800 802 804 806 808 810 812 814 816 817 820 822 825 827 827 828 828 830 832 833 835 837 838 840 841 842 843 844 845 846 846 846 847 847
810 809 811 810 808 813 813 805 803 809 810 807 803 801 800 799 801 803 801 800 800 796 792 793 794 794 794 792 788 786 786 786 786 786 786 785 785 785 786 786 787 788 788 789 790 791 792 792 793 794 795 797 798 799 801 802 804 807 809 811 814 815 816 817 819 823 826 828 829 829 829 831 834 835 836 836 837 839 840 841 842 843 846 846 845 845 846
810 813 813 812 817 822 815 805 803 808 808 807 806 802 799 798 797 795 795 797 800 798 795 795 797 798 799 797 790 786 786 787 788 788 788 787 786 785 786 786 787 787 788 790 791 792 793 794 795 796 797 798 799 799 800 801 803 805 806 808 810 812 814 816 817 819 822 827 830 830 827 830 835 837 835 834 835 837 838 839 840 841 843 844 844 844 844
810 813 814 821 826 819 806 801 802 803 802 803 804 801 797 796 795 792 795 797 798 799 797 795 797 799 799 797 792 788 786 789 792 793 792 790 789 788 788 787 788 788 789 790 791 792 793 794 795 797 798 798 799 800 800 802 803 804 805 805 806 808 810 813 816 818 820 824 829 830 826 827 834 837 837 835 835 835 837 839 839 840 841 842 842 842 843
814 814 819 825 821 809 803 803 802 802 804 804 805 803 796 792 791 790 793 796 795 796 797 795 797 798 796 795 795 791 786 789 796 798 796 794 792 790 790 790 789 790 789 790 791 792 793 794 795 796 797 798 799 800 801 802 803 803 804 804 805 806 807 811 815 817 819 821 826 830 828 826 830 834 836 835 835 834 834 836 838 838 839 840 841 842 842
819 819 819 816 811 809 809 805 800 800 801 800 802 802 794 786 787 788 790 793 794 794 796 796 796 796 796 797 800 796 789 788 796 801 800 798 796 793 793 792 791 792 792 792 792 792 793 794 795 796 797 797 799 800 801 802 803 803 803 804 805 806 807 810 813 815 817 820 823 827 828 827 829 832 833 833 834 833 834 835 836 837 837 838 840 841 841
820 821 821 819 818 816 808 800 796 794 794 792 795 800 794 785 784 787 788 792 794 794 796 797 796 797 800 802 804 802 793 788 795 804 804 800 798 796 795 795 794 794 795 795 795 794 794 794 795 796 797 798 798 800 802 803 803 803 804 804 805 806 807 810 812 814 817 819 821 824 827 828 830 831 832 832 832 833 834 835 835 835 836 837 838 839 840
818 818 821 824 822 811 800 796 794 793 793 791 794 802 798 785 783 786 786 790 793 793 796 797 795 798 804 806 805 803 795 789 795 804 804 801 800 798 798 797 796 797 798 797 797 796 795 796 797 797 798 798 799 802 804 805 805 806 806 806 807 807 807 809 811 814 817 819 821 824 827 829 830 830 830 830 831 832 833 833 834 834 835 836 837 838 839
814 814 816 817 812 802 797 795 793 792 791 792 802 813 802 786 785 786 785 788 791 792 795 796 796 798 803 805 804 803 797 792 795 801 803 803 802 801 801 801 799 800 800 800 800 798 798 798 799 799 799 800 802 805 806 807 808 809 810 809 809 808 808 810 813 815 818 821 823 825 828 830 831 831 830 829 830 832 833 833 833 834 835 835 836 838 839
813 815 814 812 804 796 795 795 793 792 794 799 810 811 796 786 788 787 786 789 790 791 794 796 796 797 799 800 802 803 800 797 797 799 802 804 804 803 803 803 802 802 803 804 805 804 803 802 802 802 801 802 804 807 808 809 811 813 812 812 811 810 810 813 816 818 819 822 825 826 828 830 831 831 830 830 830 832 833 833 833 833 834 836 837 839 840
815 814 812 813 806 794 792 795 794 794 799 804 804 797 789 789 788 786 787 789 789 791 794 795 796 797 797 799 802 803 802 802 800 800 801 804 805 805 805 805 804 804 805 807 808 809 808 808 807 806 804 805 807 809 811 814 815 815 814 815 814 814 814 816 818 820 822 823 825 826 827 828 829 830 831 832 833 834 835 834 834 835 837 838 839 841 841
816 817 817 818 811 796 792 795 795 795 798 797 792 789 790 790 787 786 788 788 788 792 794 795 797 797 797 800 802 802 803 803 803 802 803 804 806 806 806 807 807 807 808 810 811 812 813 813 813 812 810 810 812 813 815 818 818 817 818 818 818 818 819 820 821 823 825 826 828 829 829 830 831 832 833 834 835 836 836 836 837 838 839 840 841 842 842
809 813 812 808 801 795 793 793 793 793 792 791 789 789 790 788 787 787 787 787 788 790 791 795 798 797 798 801 801 802 804 804 805 805 805 805 806 807 808 809 810 810 812 813 814 814 815 816 816 816 816 816 816 817 819 821 821 820 821 821 820 821 823 824 825 826 828 829 829 830 831 832 833 834 835 836 836 837 838 838 839 840 840 841 843 843 843
801 801 798 795 793 795 795 793 792 792 790 790 789 788 788 788 788 787 787 787 788 788 790 795 797 797 799 800 801 802 803 804 806 806 806 807 808 808 810 812 813 814 815 816 816 816 818 818 819 820 820 819 819 820 822 824 824 823 824 824 823 824 826 828 829 829 829 829 830 831 833 833 834 835 836 837 838 838 839 840 841 841 842 842 843 843 843
798 797 795 795 795 794 793 793 793 792 791 789 789 788 790 790 788 789 790 790 789 788 790 793 796 798 799 799 801 802 802 804 806 807 808 809 809 811 813 814 816 817 818 819 820 820 821 822 822 823 822 822 823 824 825 826 826 826 826 825 825 827 828 830 831 831 831 832 833 834 834 835 836 837 838 839 839 840 840 841 842 843 843 843 844 844 844
797 797 796 796 795 794 794 793 793 792 791 790 789 790 792 792 792 793 794 794 793 792 792 793 796 798 798 799 801 802 803 805 806 807 809 811 812 813 815 816 818 819 819 821 822 823 824 824 825 826 825 825 827 828 828 829 829 829 828 827 828 829 830 831 833 833 834 835 835 836 837 837 838 838 839 840 840 841 841 842 843 843 843 844 844 844 844
796 796 796 795 794 794 793 792 791 791 791 791 790 791 792 793 794 795 796 797 798 797 796 797 798 800 800 801 802 803 804 806 807 809 811 812 814 815 817 818 820 821 821 823 824 824 825 826 827 827 827 828 829 830 831 831 831 831 831 830 831 832 833 834 835 836 837 838 838 839 839 839 840 840 841 841 842 842 842 843 843 843 844 844 844 844 844
796 796 796 796 795 794 794 792 791 790 789 790 791 791 791 791 792 795 796 797 799 800 801 801 802 804 805 804 803 804 806 807 809 811 812 814 815 817 818 820 821 822 824 825 825 826 828 828 828 828 829 830 831 831 832 833 833 833 833 833 834 835 836 837 838 838 839 840 840 840 840 841 841 841 842 842 843 843 843 843 843 843 844 844 844 844 844
793 790 790 791 792 792 793 792 791 791 791 790 791 792 791 791 791 794 798 800 800 800 803 805 807 808 808 807 807 807 808 810 812 813 814 816 817 818 820 822 823 825 826 827 827 829 830 830 831 831 831 832 832 833 833 834 834 835 835 835 836 837 838 838 839 839 840 840 841 841 841 842 842 843 843 843 843 844 844 844 844 844 844 844 844 844 843
784 781 782 785 786 787 791 790 790 791 791 790 791 792 792 792 792 793 798 803 804 802 802 806 811 811 811 810 811 811 812 813 815 815 817 818 819 821 822 823 825 827 828 829 829 830 831 832 833 833 834 835 835 835 836 836 836 836 837 837 838 839 839 840 841 841 841 842 842 843 843 843 844 844 844 845 845 845 845 845 845 844 844 844 844 844 843
778 777 779 782 783 785 789 790 790 791 790 790 792 793 792 791 792 793 798 804 807 806 804 806 810 812 813 813 813 814 816 817 817 818 820 820 822 823 824 825 827 828 829 830 831 832 833 834 834 835 836 836 837 837 838 838 838 838 838 839 840 840 841 842 842 843 843 843 844 844 845 845 845 846 846 846 846 846 846 846 846 845 845 845 844 844 844
775 776 779 782 783 784 788 790 791 792 791 790 792 793 792 792 793 795 799 804 807 807 806 807 810 812 814 816 816 817 818 819 820 820 821 822 824 825 825 827 828 829 831 832 832 833 834 834 835 836 837 837 838 839 839 840 840 840 840 841 842 843 843 844 844 844 845 845 846 846 846 846 846 846 846 847 846 846 846 846 846 846 846 845 845 845 844
775 777 780 783 785 787 790 792 793 793 792 791 791 793 794 794 795 799 803 805 807 807 806 808 810 813 816 819 819 818 819 820 821 821 822 823 824 825 827 828 829 830 831 832 833 834 835 835 836 837 837 838 839 840 840 841 841 841 842 842 843 844 844 845 845 846 846 846 846 846 846 847 847 847 847 847 846 846 846 846 846 846 845 845 845 845 844
776 776 779 784 790 792 791 792 793 794 794 793 793 794 796 797 800 804 806 806 806 807 807 808 810 814 819 821 820 819 820 822 822 823 824 824 825 827 828 830 830 831 832 832 834 835 835 836 837 837 838 839 840 840 840 841 841 841 842 843 843 844 844 845 845 845 846 846 846 846 846 847 847 847 847 847 846 846 846 846 845 845 845 845 845 845 844
776 776 775 779 786 790 790 791 793 795 796 796 795 796 798 801 804 807 807 806 806 807 809 812 813 815 820 821 820 821 822 823 824 825 826 827 828 829 830 831 832 833 833 834 836 836 837 838 838 839 840 841 841 841 841 841 841 842 842 842 843 844 844 844 845 845 846 846 846 846 846 846 846 847 846 846 846 846 845 845 845 845 845 844 844 844 844
777 777 776 776 779 784 789 792 795 796 798 798 798 798 800 803 805 807 807 807 808 809 812 815 816 817 819 820 820 822 823 824 825 827 828 830 831 832 833 834 834 835 836 837 838 839 840 841 841 842 843 843 843 843 843 842 843 843 843 843 844 844 844 845 845 845 845 845 845 845 846 846 846 846 846 846 846 845 845 845 844 844 844 844 843 843 843
778 779 779 780 781 784 788 792 796 798 799 799 800 800 801 802 805 807 808 808 809 811 813 816 817 819 820 821 822 823 824 826 827 829 831 832 834 834 835 835 836 836 838 839 840 841 842 842 843 844 844 845 845 845 844 844 844 845 845 845 845 845 845 845 845 845 845 845 845 845 845 845 845 845 845 845 844 844 844 844 844 843 843 843 843 843 842
779 780 781 782 784 785 788 792 796 798 800 800 801 802 803 803 806 809 810 810 810 812 815 817 819 821 822 823 824 825 826 828 829 831 833 834 835 836 837 836 837 838 840 840 841 842 842 843 844 844 845 845 845 845 845 845 846 846 846 846 846 846 846 846 845 845 845 845 845 845 845 844 844 844 844 844 844 843 843 843 842 842 842 842 842 842 841
779 783 784 785 786 788 791 793 796 798 800 801 802 803 804 805 807 809 811 811 813 815 817 818 821 823 824 825 825 826 828 830 831 833 834 836 837 837 838 838 838 839 840 841 842 843 843 844 844 845 845 845 845 845 845 845 845 846 846 846 846 846 846 846 846 846 845 845 845 845 844 844 844 844 844 844 843 843 843 842 842 841 841 840 840 840 840
778 784 786 787 788 791 793 794 795 797 799 800 801 803 804 805 807 810 811 813 814 816 818 820 822 824 825 825 826 828 829 831 833 835 836 837 838 839 839 840 840 841 841 842 843 843 844 845 845 845 846 845 845 845 845 845 845 846 846 846 846 846 846 846 846 845 845 845 845 844 844 844 844 843 843 843 843 842 842 841 841 840 840 839 839 838 838
768 772 775 778 780 784 789 791 793 796 798 800 801 803 805 806 808 810 812 814 816 818 819 821 823 824 825 826 828 829 831 833 835 837 838 839 840 840 840 841 841 842 843 844 844 845 846 846 846 847 847 846 846 847 846 846 847 847 846 846 846 846 846 846 845 845 845 845 844 844 844 843 843 843 843 842 842 841 841 840 840 839 838 838 837 837 836
764 765 769 772 774 777 782 786 790 793 796 799 802 803 805 807 809 811 813 814 816 818 820 822 824 825 826 828 829 831 832 834 836 838 839 839 840 841 841 842 843 843 844 845 846 846 847 848 848 848 848 848 848 848 847 847 847 847 847 847 847 846 846 846 845 845 845 844 844 844 843 843 842 842 842 841 841 840 839 839 839 838 837 836 836 835 835
767 769 772 775 777 779 782 785 789 792 794 797 800 803 806 808 810 811 814 815 817 819 821 823 825 826 828 829 831 832 834 835 837 838 839 840 841 842 842 843 844 845 846 847 847 848 849 849 849 848 849 848 848 848 848 848 847 847 847 847 847 846 846 846 845 845 845 844 844 844 843 842 842 841 840 840 839 838 838 837 837 836 836 835 834 834 834
768 770 773 776 778 781 783 785 788 792 794 797 800 802 805 808 810 812 814 816 818 820 822 823 825 827 829 830 832 833 835 837 838 839 840 841 842 843 843 844 845 846 847 848 849 850 850 850 849 849 849 849 848 848 848 847 847 847 847 846 846 846 846 845 845 845 844 844 844 843 842 842 841 840 839 839 837 837 836 836 835 834 834 833 832 832 832
769 771 773 776 779 782 785 787 790 792 795 798 801 803 805 807 810 812 815 817 819 821 823 824 826 828 829 831 833 835 837 838 839 840 841 842 843 843 844 846 847 848 848 849 850 851 850 850 849 849 849 848 849 848 847 847 846 846 845 846 846 845 845 845 845 844 844 843 843 842 842 841 840 839 838 837 836 835 835 834 833 833 832 831 830 830 830
770 772 775 777 779 783 786 789 791 793 795 797 801 804 806 808 810 813 815 818 820 822 823 825 827 829 831 833 835 836 838 839 840 841 842 842 843 844 845 847 848 848 849 850 850 850 850 850 849 849 848 848 848 848 847 846 845 845 845 845 845 845 845 845 844 844 843 843 842 841 841 840 839 839 837 836 835 834 833 832 831 831 830 829 829 828 828
769 772 775 778 780 783 786 789 792 794 795 796 799 803 806 808 810 813 816 818 821 822 823 825 827 830 832 833 835 837 838 839 840 841 841 842 843 845 846 847 848 849 849 849 849 850 849 849 848 848 848 847 847 847 846 845 845 844 844 844 845 844 844 844 844 843 843 842 842 841 840 840 839 838 837 836 835 834 832 831 830 829 829 828 827 827 827
769 772 774 777 780 783 785 788 791 794 796 798 799 802 805 807 810 813 816 818 821 823 824 826 827 830 831 833 835 836 838 839 840 841 842 843 844 845 846 847 848 849 849 849 849 849 848 848 848 848 848 847 847 847 846 846 845 844 844 844 844 844 844 844 843 843 843 842 842 841 840 840 839 838 837 836 835 834 833 832 830 829 829 828 827 827 827
769 772 774 777 780 783 785 788 791 794 797 799 800 802 805 807 810 812 815 818 821 824 826 827 828 829 831 833 834 836 838 839 840 842 843 843 844 844 845 846 848 848 848 848 848 848 848 848 847 847 847 847 847 846 846 846 845 845 844 844 844 844 844 844 844 844 843 843 842 842 841 840 839 838 838 837 836 834 833 832 831 830 829 828 827 827 827
769 772 774 777 781 783 786 789 791 794 798 800 802 804 806 808 810 813 815 818 821 823 825 827 828 829 831 832 834 836 838 840 841 842 843 843 844 844 844 845 846 847 846 846 847 847 847 847 847 847 847 846 846 846 846 845 845 845 845 844 844 844 844 844 844 844 844 843 842 842 841 841 840 839 838 837 836 835 834 833 831 830 830 829 828 828 827
769 772 774 778 781 784 786 789 791 794 797 801 803 805 807 809 811 813 815 818 820 822 824 825 827 829 830 832 834 836 838 839 840 841 841 842 843 843 843 844 845 845 845 846 846 846 847 847 847 847 847 846 846 846 846 845 845 845 845 845 845 845 845 845 845 844 844 843 843 842 842 841 841 840 839 838 837 836 835 833 832 831 830 830 829 829 828
769 771 774 777 781 783 786 788 791 793 797 800 804 807 808 810 812 813 815 817 819 821 823 824 826 828 830 831 833 835 836 837 838 839 839 839 840 842 843 843 844 845 845 846 846 847 847 848 847 847 847 847 847 847 846 846 846 846 846 846 846 846 846 846 845 845 844 844 843 843 842 842 841 841 840 839 838 836 835 834 833 832 831 831 831 830 830
771 772 774 778 781 783 785 787 790 793 796 800 805 808 810 811 812 814 816 817 819 821 823 824 826 827 829 831 832 834 836 836 837 837 837 838 839 841 842 844 845 845 846 847 847 848 848 848 848 848 848 848 848 848 848 848 848 848 848 848 848 847 847 847 846 846 845 845 844 844 843 843 842 842 841 839 838 837 835 834 833 833 832 832 832 832 831
772 774 776 779 782 785 787 789 791 794 797 800 804 807 810 812 813 815 817 818 820 821 823 825 826 828 829 830 831 833 834 835 836 837 838 839 840 842 843 844 845 846 847 848 848 849 849 849 849 849 849 849 849 849 849 849 849 849 849 849 849 849 848 848 847 847 846 846 845 845 844 844 843 843 842 840 839 838 837 835 834 834 833 833 833 833 833
773 775 776 779 783 786 789 791 793 795 797 800 802 806 809 812 813 815 817 819 820 822 824 825 827 828 829 831 832 833 833 833 835 837 839 840 841 843 844 845 846 847 847 848 848 848 849 849 849 849 849 849 850 850 850 850 850 850 850 850 849 849 849 848 848 848 847 847 846 846 845 845 844 844 842 841 840 839 838 837 836 835 835 834 834 834 834
773 775 778 781 783 786 789 791 794 796 798 800 803 806 809 811 813 816 818 819 821 823 825 826 827 828 830 831 832 833 833 833 834 836 838 840 841 843 844 845 846 847 847 848 848 848 849 849 849 849 849 850 850 850 850 850 850 850 850 850 850 849 849 849 848 848 847 847 846 846 845 845 845 844 843 842 841 840 839 838 838 837 836 835 835 835 834
773 776 779 781 783 785 788 790 793 796 799 801 803 806 808 810 813 815 818 819 821 823 825 826 828 829 830 831 832 833 834 834 835 837 838 840 841 843 844 845 846 847 847 848 848 848 849 849 849 849 850 850 850 851 851 851 851 851 850 850 850 849 849 849 848 848 848 847 847 846 846 845 845 844 843 842 841 841 840 839 838 838 837 836 836 835 835
772 775 777 780 782 785 787 789 791 794 798 800 803 805 808 810 812 814 817 819 820 822 824 826 828 829 830 831 832 833 834 835 836 838 839 840 842 843 844 845 846 847 847 848 848 848 849 849 849 850 850 850 850 851 851 851 851 851 850 850 850 850 849 849 848 848 848 847 847 846 846 845 845 844 843 842 842 841 840 840 839 838 837 837 836 836 835
771 774 777 781 784 787 789 791 793 795 797 800 802 805 807 809 812 814 816 818 820 821 823 825 827 829 830 831 832 833 835 836 837 839 840 841 842 843 844 845 846 846 847 848 848 848 848 849 849 849 850 850 850 851 851 850 850 850 850 850 850 849 849 849 848 848 848 847 847 846 846 845 845 844 843 843 842 841 841 840 839 839 838 837 837 836 836